Time,TemperatureF,DewpointF,PressureIn,WindDirection,WindDirectionDegrees,WindSpeedMPH,WindSpeedGustMPH,Humidity,HourlyPrecipIn,Conditions,Clouds,dailyrainin,SoftwareType,DateUTC
2013-09-17 00:01:00,71.4,71.1,30.07,NE,36,1.0,6.0,99,0.00,,,0.12,VWS V14.00,2013-09-17 04:01:00,
2013-09-17 00:02:00,71.4,71.1,30.07,NE,42,2.0,3.0,99,0.00,,,0.00,VWS V14.00,2013-09-17 04:02:00,
2013-09-17 00:04:00,71.4,71.1,30.07,NE,42,0.0,3.0,99,0.00,,,0.00,VWS V14.00,2013-09-17 04:04:00,
2013-09-17 00:09:00,71.4,70.8,30.07,NE,55,2.0,3.0,98,0.00,,,0.00,VWS V14.00,2013-09-17 04:09:00,
2013-09-17 00:11:00,71.4,70.8,30.07,NE,55,1.0,3.0,98,0.00,,,0.00,VWS V14.00,2013-09-17 04:11:00,
2013-09-17 00:13:00,71.4,70.8,30.07,NE,52,2.0,3.0,98,0.00,,,0.00,VWS V14.00,2013-09-17 04:13:00,
2013-09-17 00:18:00,71.3,70.7,30.07,NE,43,3.0,3.0,98,0.00,,,0.00,VWS V14.00,2013-09-17 04:18:00,
2013-09-17 00:23:00,71.2,70.6,30.07,ENE,68,1.0,3.0,98,0.00,,,0.00,VWS V14.00,2013-09-17 04:23:00,
2013-09-17 00:28:00,71.2,70.6,30.07,ENE,68,1.0,3.0,98,0.00,,,0.00,VWS V14.00,2013-09-17 04:28:00,
2013-09-17 00:33:00,71.1,70.5,30.08,ENE,68,0.0,2.0,98,0.00,,,0.00,VWS V14.00,2013-09-17 04:33:00,
2013-09-17 00:38:00,71.0,70.1,30.08,ENE,68,0.0,2.0,97,0.00,,,0.00,VWS V14.00,2013-09-17 04:38:00,
2013-09-17 00:43:00,70.9,70.0,30.08,ENE,61,1.0,2.0,97,0.00,,,0.00,VWS V14.00,2013-09-17 04:43:00,
2013-09-17 00:48:00,70.8,69.9,30.08,ENE,61,0.0,2.0,97,0.00,,,0.00,VWS V14.00,2013-09-17 04:48:00,
2013-09-17 00:53:00,70.6,69.7,30.08,ENE,61,1.0,2.0,97,0.00,,,0.00,VWS V14.00,2013-09-17 04:53:00,
2013-09-17 00:58:00,70.5,69.6,30.08,ENE,57,1.0,3.0,97,0.00,,,0.00,VWS V14.00,2013-09-17 04:58:00,
2013-09-17 01:04:00,70.3,69.4,30.08,ENE,57,1.0,2.0,97,0.00,,,0.00,VWS V14.00,2013-09-17 05:04:00,
2013-09-17 01:09:00,70.2,69.0,30.08,ENE,57,2.0,4.0,96,0.00,,,0.00,VWS V14.00,2013-09-17 05:09:00,
2013-09-17 01:14:00,70.1,68.9,30.08,ENE,61,1.0,2.0,96,0.00,,,0.00,VWS V14.00,2013-09-17 05:14:00,
2013-09-17 01:19:00,70.0,68.8,30.08,ENE,61,1.0,2.0,96,0.00,,,0.00,VWS V14.00,2013-09-17 05:19:00,
2013-09-17 01:24:00,69.9,68.7,30.08,ENE,61,0.0,3.0,96,0.00,,,0.00,VWS V14.00,2013-09-17 05:24:00,
2013-09-17 01:29:00,69.8,68.6,30.08,NE,50,2.0,3.0,96,0.00,,,0.00,VWS V14.00,2013-09-17 05:29:00,
2013-09-17 01:34:00,69.8,68.6,30.08,ENE,65,1.0,3.0,96,0.00,,,0.00,VWS V14.00,2013-09-17 05:34:00,
2013-09-17 01:39:00,69.7,68.5,30.08,ENE,65,1.0,3.0,96,0.00,,,0.00,VWS V14.00,2013-09-17 05:39:00,
2013-09-17 01:44:00,69.6,68.4,30.08,NE,55,2.0,3.0,96,0.00,,,0.00,VWS V14.00,2013-09-17 05:44:00,
2013-09-17 01:49:00,69.6,68.4,30.08,NE,50,0.0,3.0,96,0.00,,,0.00,VWS V14.00,2013-09-17 05:49:00,
2013-09-17 01:54:00,69.4,68.2,30.08,NE,42,3.0,4.0,96,0.00,,,0.00,VWS V14.00,2013-09-17 05:54:00,
2013-09-17 02:00:00,69.4,67.9,30.08,NE,55,2.0,4.0,95,0.00,,,0.00,VWS V14.00,2013-09-17 06:00:00,
2013-09-17 02:05:00,69.3,67.8,30.08,NE,49,2.0,4.0,95,0.00,,,0.00,VWS V14.00,2013-09-17 06:05:00,
2013-09-17 02:10:00,69.2,67.7,30.09,ENE,67,2.0,4.0,95,0.00,,,0.00,VWS V14.00,2013-09-17 06:10:00,
2013-09-17 02:15:00,69.2,67.4,30.08,ENE,62,2.0,4.0,94,0.00,,,0.00,VWS V14.00,2013-09-17 06:15:00,
2013-09-17 02:20:00,69.1,67.3,30.09,ENE,59,0.0,4.0,94,0.00,,,0.00,VWS V14.00,2013-09-17 06:20:00,
2013-09-17 02:25:00,69.1,67.3,30.09,ENE,72,1.0,4.0,94,0.00,,,0.00,VWS V14.00,2013-09-17 06:25:00,
2013-09-17 02:30:00,69.1,67.3,30.09,ENE,71,0.0,4.0,94,0.00,,,0.00,VWS V14.00,2013-09-17 06:30:00,
2013-09-17 02:35:00,69.0,67.5,30.09,NE,51,1.0,3.0,95,0.00,,,0.00,VWS V14.00,2013-09-17 06:35:00,
2013-09-17 02:40:00,68.9,67.4,30.09,ENE,62,3.0,3.0,95,0.00,,,0.00,VWS V14.00,2013-09-17 06:40:00,
2013-09-17 02:45:00,68.8,67.3,30.09,ENE,63,1.0,3.0,95,0.00,,,0.00,VWS V14.00,2013-09-17 06:45:00,
2013-09-17 02:50:00,68.8,67.3,30.09,ENE,61,2.0,3.0,95,0.00,,,0.00,VWS V14.00,2013-09-17 06:50:00,
2013-09-17 02:55:00,68.7,67.2,30.09,ENE,64,1.0,3.0,95,0.00,,,0.00,VWS V14.00,2013-09-17 06:55:00,
2013-09-17 03:01:00,68.6,67.1,30.09,NE,52,2.0,4.0,95,0.00,,,0.00,VWS V14.00,2013-09-17 07:01:00,
2013-09-17 03:06:00,68.5,67.0,30.09,NE,51,3.0,5.0,95,0.00,,,0.00,VWS V14.00,2013-09-17 07:06:00,
2013-09-17 03:11:00,68.5,67.0,30.09,NNE,33,2.0,5.0,95,0.00,,,0.00,VWS V14.00,2013-09-17 07:11:00,
2013-09-17 03:16:00,68.4,66.9,30.09,NE,47,2.0,4.0,95,0.00,,,0.00,VWS V14.00,2013-09-17 07:16:00,
2013-09-17 03:21:00,68.4,66.6,30.09,NE,52,2.0,4.0,94,0.00,,,0.00,VWS V14.00,2013-09-17 07:21:00,
2013-09-17 03:26:00,68.3,66.5,30.09,NE,40,3.0,4.0,94,0.00,,,0.00,VWS V14.00,2013-09-17 07:26:00,
2013-09-17 03:31:00,68.2,66.4,30.09,NE,48,2.0,3.0,94,0.00,,,0.00,VWS V14.00,2013-09-17 07:31:00,
2013-09-17 03:36:00,68.2,66.4,30.09,ENE,63,2.0,6.0,94,0.00,,,0.00,VWS V14.00,2013-09-17 07:36:00,
2013-09-17 03:41:00,68.1,66.3,30.09,NE,55,2.0,3.0,94,0.00,,,0.00,VWS V14.00,2013-09-17 07:41:00,
2013-09-17 03:46:00,68.0,66.2,30.08,NE,36,4.0,6.0,94,0.00,,,0.00,VWS V14.00,2013-09-17 07:46:00,
2013-09-17 03:51:00,68.0,65.9,30.09,NE,48,3.0,5.0,93,0.00,,,0.00,VWS V14.00,2013-09-17 07:51:00,
2013-09-17 03:57:00,68.0,65.9,30.09,NE,40,1.0,5.0,93,0.00,,,0.00,VWS V14.00,2013-09-17 07:57:00,
2013-09-17 04:02:00,68.0,65.9,30.09,NE,50,3.0,3.0,93,0.00,,,0.00,VWS V14.00,2013-09-17 08:02:00,
2013-09-17 04:07:00,68.0,65.9,30.09,NE,55,0.0,5.0,93,0.00,,,0.00,VWS V14.00,2013-09-17 08:07:00,
2013-09-17 04:12:00,68.0,65.9,30.09,ENE,57,2.0,2.0,93,0.00,,,0.00,VWS V14.00,2013-09-17 08:12:00,
2013-09-17 04:17:00,67.9,65.8,30.10,NE,53,2.0,4.0,93,0.00,,,0.00,VWS V14.00,2013-09-17 08:17:00,
2013-09-17 04:22:00,67.9,65.8,30.10,NE,51,1.0,2.0,93,0.00,,,0.00,VWS V14.00,2013-09-17 08:22:00,
2013-09-17 04:27:00,67.8,65.7,30.10,NE,52,2.0,5.0,93,0.00,,,0.00,VWS V14.00,2013-09-17 08:27:00,
2013-09-17 04:32:00,67.8,65.7,30.09,NE,46,3.0,3.0,93,0.00,,,0.00,VWS V14.00,2013-09-17 08:32:00,
2013-09-17 04:37:00,67.8,65.4,30.09,NE,38,2.0,4.0,92,0.00,,,0.00,VWS V14.00,2013-09-17 08:37:00,
2013-09-17 04:42:00,67.7,65.3,30.09,NE,51,1.0,4.0,92,0.00,,,0.00,VWS V14.00,2013-09-17 08:42:00,
2013-09-17 04:47:00,67.6,65.2,30.09,ENE,60,3.0,5.0,92,0.00,,,0.00,VWS V14.00,2013-09-17 08:47:00,
2013-09-17 04:53:00,67.6,65.2,30.09,NE,49,3.0,5.0,92,0.00,,,0.00,VWS V14.00,2013-09-17 08:53:00,
2013-09-17 04:58:00,67.4,65.0,30.09,ENE,63,1.0,6.0,92,0.00,,,0.00,VWS V14.00,2013-09-17 08:58:00,
2013-09-17 05:03:00,67.4,65.0,30.10,NE,48,5.0,7.0,92,0.00,,,0.00,VWS V14.00,2013-09-17 09:03:00,
2013-09-17 05:08:00,67.3,64.9,30.10,ENE,60,3.0,7.0,92,0.00,,,0.00,VWS V14.00,2013-09-17 09:08:00,
2013-09-17 05:13:00,67.3,64.9,30.10,NE,55,0.0,4.0,92,0.00,,,0.00,VWS V14.00,2013-09-17 09:13:00,
2013-09-17 05:18:00,67.2,64.8,30.10,NE,54,2.0,5.0,92,0.00,,,0.00,VWS V14.00,2013-09-17 09:18:00,
2013-09-17 05:23:00,67.2,64.8,30.10,ENE,64,4.0,5.0,92,0.00,,,0.00,VWS V14.00,2013-09-17 09:23:00,
2013-09-17 05:28:00,67.1,64.4,30.11,NE,52,3.0,6.0,91,0.00,,,0.00,VWS V14.00,2013-09-17 09:28:00,
2013-09-17 05:33:00,67.1,64.4,30.11,ENE,57,3.0,3.0,91,0.00,,,0.00,VWS V14.00,2013-09-17 09:33:00,
2013-09-17 05:38:00,67.0,64.3,30.11,ENE,62,3.0,5.0,91,0.00,,,0.00,VWS V14.00,2013-09-17 09:38:00,
2013-09-17 05:43:00,67.1,64.4,30.11,NE,49,3.0,4.0,91,0.00,,,0.00,VWS V14.00,2013-09-17 09:43:00,
2013-09-17 05:49:00,67.1,64.4,30.11,NE,49,2.0,5.0,91,0.00,,,0.00,VWS V14.00,2013-09-17 09:49:00,
2013-09-17 05:54:00,67.1,64.4,30.12,NE,48,4.0,4.0,91,0.00,,,0.00,VWS V14.00,2013-09-17 09:54:00,
2013-09-17 05:59:00,67.1,64.1,30.12,NE,54,2.0,4.0,90,0.00,,,0.00,VWS V14.00,2013-09-17 09:59:00,
2013-09-17 06:04:00,67.1,64.1,30.12,NNE,33,3.0,5.0,90,0.00,,,0.00,VWS V14.00,2013-09-17 10:04:00,
2013-09-17 06:09:00,67.1,64.1,30.12,NE,42,3.0,5.0,90,0.00,,,0.00,VWS V14.00,2013-09-17 10:09:00,
2013-09-17 06:14:00,67.0,64.3,30.12,ENE,59,3.0,3.0,91,0.00,,,0.00,VWS V14.00,2013-09-17 10:14:00,
2013-09-17 06:19:00,67.0,64.0,30.12,NE,36,2.0,4.0,90,0.00,,,0.00,VWS V14.00,2013-09-17 10:19:00,
2013-09-17 06:24:00,67.0,64.0,30.12,ENE,67,0.0,3.0,90,0.00,,,0.00,VWS V14.00,2013-09-17 10:24:00,
2013-09-17 06:29:00,67.0,64.3,30.12,ENE,67,2.0,3.0,91,0.00,,,0.00,VWS V14.00,2013-09-17 10:29:00,
2013-09-17 06:35:00,66.9,63.9,30.13,NE,53,1.0,3.0,90,0.00,,,0.00,VWS V14.00,2013-09-17 10:35:00,
2013-09-17 06:40:00,66.9,64.2,30.13,NNE,27,2.0,4.0,91,0.00,,,0.00,VWS V14.00,2013-09-17 10:40:00,
2013-09-17 06:43:00,66.9,64.2,30.13,ENE,65,4.0,4.0,91,0.00,,,0.00,VWS V14.00,2013-09-17 10:43:00,
2013-09-17 06:45:00,66.9,64.2,30.13,ENE,65,4.0,4.0,91,0.00,,,0.00,VWS V14.00,2013-09-17 10:45:00,
2013-09-17 06:50:00,66.9,64.2,30.13,ENE,65,4.0,4.0,91,0.00,,,0.00,VWS V14.00,2013-09-17 10:50:00,
2013-09-17 06:57:00,66.9,64.2,30.13,NE,49,2.0,4.0,91,0.00,,,0.00,VWS V14.00,2013-09-17 10:57:00,
2013-09-17 07:02:00,66.9,63.9,30.13,ENE,65,1.0,5.0,90,0.00,,,0.00,VWS V14.00,2013-09-17 11:02:00,
2013-09-17 07:08:00,66.9,63.9,30.14,NE,34,2.0,5.0,90,0.00,,,0.00,VWS V14.00,2013-09-17 11:08:00,
2013-09-17 07:13:00,66.8,64.1,30.14,ENE,60,1.0,3.0,91,0.00,,,0.00,VWS V14.00,2013-09-17 11:13:00,
2013-09-17 07:18:00,66.8,64.1,30.14,NE,53,2.0,4.0,91,0.00,,,0.00,VWS V14.00,2013-09-17 11:18:00,
2013-09-17 07:23:00,66.7,64.0,30.15,NE,47,2.0,3.0,91,0.00,,,0.00,VWS V14.00,2013-09-17 11:23:00,
2013-09-17 07:28:00,66.7,63.7,30.15,ENE,64,3.0,6.0,90,0.00,,,0.00,VWS V14.00,2013-09-17 11:28:00,
2013-09-17 07:33:00,66.7,63.7,30.15,ENE,65,1.0,3.0,90,0.00,,,0.00,VWS V14.00,2013-09-17 11:33:00,
2013-09-17 07:38:00,66.7,63.7,30.16,ENE,71,2.0,6.0,90,0.00,,,0.00,VWS V14.00,2013-09-17 11:38:00,
2013-09-17 07:43:00,66.7,63.7,30.16,ENE,69,3.0,3.0,90,0.00,,,0.00,VWS V14.00,2013-09-17 11:43:00,
2013-09-17 07:48:00,66.6,63.6,30.16,NE,40,2.0,5.0,90,0.00,,,0.00,VWS V14.00,2013-09-17 11:48:00,
2013-09-17 07:53:00,66.7,63.7,30.17,ENE,58,2.0,3.0,90,0.00,,,0.00,VWS V14.00,2013-09-17 11:53:00,
2013-09-17 07:58:00,66.7,63.7,30.17,NE,53,2.0,5.0,90,0.00,,,0.00,VWS V14.00,2013-09-17 11:58:00,
2013-09-17 08:04:00,66.7,63.7,30.17,NE,53,3.0,4.0,90,0.00,,,0.00,VWS V14.00,2013-09-17 12:04:00,
2013-09-17 08:09:00,66.8,63.8,30.17,ENE,61,2.0,4.0,90,0.00,,,0.00,VWS V14.00,2013-09-17 12:09:00,
2013-09-17 08:14:00,66.9,63.9,30.17,NE,49,0.0,2.0,90,0.00,,,0.00,VWS V14.00,2013-09-17 12:14:00,
2013-09-17 08:19:00,67.0,64.0,30.17,ENE,63,2.0,4.0,90,0.00,,,0.00,VWS V14.00,2013-09-17 12:19:00,
2013-09-17 08:24:00,67.2,63.8,30.17,ENE,61,2.0,5.0,89,0.00,,,0.00,VWS V14.00,2013-09-17 12:24:00,
2013-09-17 08:29:00,67.4,64.1,30.17,ENE,60,3.0,5.0,89,0.00,,,0.00,VWS V14.00,2013-09-17 12:29:00,
2013-09-17 08:34:00,67.5,64.2,30.17,NE,34,2.0,4.0,89,0.00,,,0.00,VWS V14.00,2013-09-17 12:34:00,
2013-09-17 08:39:00,67.7,64.3,30.17,NE,52,2.0,4.0,89,0.00,,,0.00,VWS V14.00,2013-09-17 12:39:00,
2013-09-17 08:44:00,67.9,64.2,30.18,NE,34,1.0,7.0,88,0.00,,,0.00,VWS V14.00,2013-09-17 12:44:00,
2013-09-17 08:49:00,68.2,64.5,30.18,NE,44,1.0,7.0,88,0.00,,,0.00,VWS V14.00,2013-09-17 12:49:00,
2013-09-17 08:54:00,68.7,65.0,30.18,NNE,29,4.0,6.0,88,0.00,,,0.00,VWS V14.00,2013-09-17 12:54:00,
2013-09-17 09:00:00,69.1,64.7,30.18,NNE,26,4.0,6.0,86,0.00,,,0.00,VWS V14.00,2013-09-17 13:00:00,
2013-09-17 09:05:00,69.3,64.6,30.18,NE,46,3.0,9.0,85,0.00,,,0.00,VWS V14.00,2013-09-17 13:05:00,
2013-09-17 09:10:00,69.4,64.7,30.18,NE,50,5.0,9.0,85,0.00,,,0.00,VWS V14.00,2013-09-17 13:10:00,
2013-09-17 09:15:00,69.5,64.8,30.18,NE,55,2.0,5.0,85,0.00,,,0.00,VWS V14.00,2013-09-17 13:15:00,
2013-09-17 09:20:00,69.7,64.7,30.18,NE,40,2.0,10.0,84,0.00,,,0.00,VWS V14.00,2013-09-17 13:20:00,
2013-09-17 09:25:00,69.9,64.8,30.18,ENE,71,4.0,5.0,84,0.00,,,0.00,VWS V14.00,2013-09-17 13:25:00,
2013-09-17 09:30:00,70.3,65.2,30.18,NNE,30,2.0,5.0,84,0.00,,,0.00,VWS V14.00,2013-09-17 13:30:00,
2013-09-17 09:35:00,70.6,65.2,30.18,NE,56,2.0,5.0,83,0.00,,,0.00,VWS V14.00,2013-09-17 13:35:00,
2013-09-17 09:40:00,71.0,64.9,30.18,ENE,59,6.0,9.0,81,0.00,,,0.00,VWS V14.00,2013-09-17 13:40:00,
2013-09-17 09:45:00,71.1,65.3,30.18,ENE,78,0.0,7.0,82,0.00,,,0.00,VWS V14.00,2013-09-17 13:45:00,
2013-09-17 09:50:00,71.4,64.9,30.19,NE,47,2.0,9.0,80,0.00,,,0.00,VWS V14.00,2013-09-17 13:50:00,
2013-09-17 09:56:00,71.5,65.4,30.19,ENE,57,3.0,6.0,81,0.00,,,0.00,VWS V14.00,2013-09-17 13:56:00,
2013-09-17 10:01:00,71.4,65.3,30.19,NE,44,4.0,7.0,81,0.00,,,0.00,VWS V14.00,2013-09-17 14:01:00,
2013-09-17 10:06:00,71.4,65.3,30.19,NE,51,7.0,7.0,81,0.00,,,0.00,VWS V14.00,2013-09-17 14:06:00,
2013-09-17 10:11:00,71.5,65.0,30.20,NE,46,5.0,7.0,80,0.00,,,0.00,VWS V14.00,2013-09-17 14:11:00,
2013-09-17 10:16:00,71.7,65.2,30.20,ENE,58,4.0,9.0,80,0.00,,,0.00,VWS V14.00,2013-09-17 14:16:00,
2013-09-17 10:21:00,71.8,65.3,30.20,NE,53,2.0,9.0,80,0.00,,,0.00,VWS V14.00,2013-09-17 14:21:00,
2013-09-17 10:26:00,72.1,65.2,30.20,ENE,69,3.0,7.0,79,0.00,,,0.00,VWS V14.00,2013-09-17 14:26:00,
2013-09-17 10:31:00,72.2,65.3,30.20,NE,40,2.0,2.0,79,0.00,,,0.00,VWS V14.00,2013-09-17 14:31:00,
2013-09-17 10:36:00,72.5,65.6,30.20,NNE,33,0.0,5.0,79,0.00,,,0.00,VWS V14.00,2013-09-17 14:36:00,
2013-09-17 10:41:00,72.8,65.6,30.21,ENE,61,1.0,5.0,78,0.00,,,0.00,VWS V14.00,2013-09-17 14:41:00,
2013-09-17 10:46:00,72.9,65.3,30.21,NNE,32,3.0,6.0,77,0.00,,,0.00,VWS V14.00,2013-09-17 14:46:00,
2013-09-17 10:52:00,73.1,65.5,30.21,ENE,63,3.0,7.0,77,0.00,,,0.00,VWS V14.00,2013-09-17 14:52:00,
2013-09-17 10:57:00,73.3,66.8,30.21,ENE,72,1.0,7.0,80,0.00,,,0.00,VWS V14.00,2013-09-17 14:57:00,
2013-09-17 11:02:00,73.7,66.4,30.20,NE,42,4.0,5.0,78,0.00,,,0.00,VWS V14.00,2013-09-17 15:02:00,
2013-09-17 11:07:00,74.1,65.7,30.20,NE,49,3.0,9.0,75,0.00,,,0.00,VWS V14.00,2013-09-17 15:07:00,
2013-09-17 11:12:00,74.2,65.8,30.21,NE,52,1.0,3.0,75,0.00,,,0.00,VWS V14.00,2013-09-17 15:12:00,
2013-09-17 11:17:00,74.5,66.4,30.21,ENE,71,0.0,4.0,76,0.00,,,0.00,VWS V14.00,2013-09-17 15:17:00,
2013-09-17 11:22:00,74.8,66.0,30.20,NE,50,5.0,5.0,74,0.00,,,0.00,VWS V14.00,2013-09-17 15:22:00,
2013-09-17 11:27:00,74.6,65.4,30.21,NNE,23,3.0,6.0,73,0.00,,,0.00,VWS V14.00,2013-09-17 15:27:00,
2013-09-17 11:32:00,74.6,66.2,30.20,ENE,62,3.0,6.0,75,0.00,,,0.00,VWS V14.00,2013-09-17 15:32:00,
2013-09-17 11:37:00,74.8,65.2,30.20,NE,49,6.0,9.0,72,0.00,,,0.00,VWS V14.00,2013-09-17 15:37:00,
2013-09-17 11:42:00,74.8,64.8,30.20,NE,37,3.0,4.0,71,0.00,,,0.00,VWS V14.00,2013-09-17 15:42:00,
2013-09-17 11:47:00,75.0,65.8,30.20,ENE,57,2.0,6.0,73,0.00,,,0.00,VWS V14.00,2013-09-17 15:47:00,
2013-09-17 11:53:00,75.3,66.1,30.20,ENE,61,2.0,4.0,73,0.00,,,0.00,VWS V14.00,2013-09-17 15:53:00,
2013-09-17 11:58:00,75.5,65.8,30.20,ENE,61,3.0,5.0,72,0.00,,,0.00,VWS V14.00,2013-09-17 15:58:00,
2013-09-17 12:03:00,75.5,66.2,30.19,NE,40,7.0,7.0,73,0.00,,,0.00,VWS V14.00,2013-09-17 16:03:00,
2013-09-17 12:08:00,75.6,65.5,30.20,NE,56,3.0,10.0,71,0.00,,,0.00,VWS V14.00,2013-09-17 16:08:00,
2013-09-17 12:13:00,75.8,66.1,30.19,NE,49,4.0,4.0,72,0.00,,,0.00,VWS V14.00,2013-09-17 16:13:00,
2013-09-17 12:18:00,76.2,66.1,30.19,ENE,57,2.0,5.0,71,0.00,,,0.00,VWS V14.00,2013-09-17 16:18:00,
2013-09-17 12:23:00,76.2,66.1,30.19,South,173,2.0,6.0,71,0.00,,,0.00,VWS V14.00,2013-09-17 16:23:00,
2013-09-17 12:28:00,76.3,65.0,30.19,NE,43,4.0,10.0,68,0.00,,,0.00,VWS V14.00,2013-09-17 16:28:00,
2013-09-17 12:33:00,76.6,66.1,30.19,ENE,61,2.0,3.0,70,0.00,,,0.00,VWS V14.00,2013-09-17 16:33:00,
2013-09-17 12:38:00,77.4,65.6,30.19,North,5,3.0,4.0,67,0.00,,,0.00,VWS V14.00,2013-09-17 16:38:00,
2013-09-17 12:43:00,77.5,65.7,30.19,ENE,63,3.0,7.0,67,0.00,,,0.00,VWS V14.00,2013-09-17 16:43:00,
2013-09-17 12:49:00,77.2,65.0,30.18,ENE,63,2.0,7.0,66,0.00,,,0.00,VWS V14.00,2013-09-17 16:49:00,
2013-09-17 12:54:00,77.3,65.9,30.18,NE,48,4.0,5.0,68,0.00,,,0.00,VWS V14.00,2013-09-17 16:54:00,
2013-09-17 12:59:00,77.7,65.9,30.18,NE,46,2.0,7.0,67,0.00,,,0.00,VWS V14.00,2013-09-17 16:59:00,
2013-09-17 13:04:00,78.1,66.3,30.18,NE,47,5.0,5.0,67,0.00,,,0.00,VWS V14.00,2013-09-17 17:04:00,
2013-09-17 13:09:00,77.9,65.2,30.18,NE,50,5.0,6.0,65,0.00,,,0.00,VWS V14.00,2013-09-17 17:09:00,
2013-09-17 13:14:00,77.8,64.7,30.18,ENE,60,3.0,7.0,64,0.00,,,0.00,VWS V14.00,2013-09-17 17:14:00,
2013-09-17 13:19:00,78.0,64.8,30.18,NE,52,4.0,7.0,64,0.00,,,0.00,VWS V14.00,2013-09-17 17:19:00,
2013-09-17 13:24:00,78.1,65.8,30.18,ENE,61,4.0,6.0,66,0.00,,,0.00,VWS V14.00,2013-09-17 17:24:00,
2013-09-17 13:29:00,77.5,64.8,30.17,ENE,69,1.0,6.0,65,0.00,,,0.00,VWS V14.00,2013-09-17 17:29:00,
2013-09-17 13:34:00,77.6,64.9,30.17,NE,53,2.0,5.0,65,0.00,,,0.00,VWS V14.00,2013-09-17 17:34:00,
2013-09-17 13:39:00,77.8,65.5,30.17,ENE,59,3.0,6.0,66,0.00,,,0.00,VWS V14.00,2013-09-17 17:39:00,
2013-09-17 13:45:00,78.0,64.8,30.17,ENE,61,4.0,6.0,64,0.00,,,0.00,VWS V14.00,2013-09-17 17:45:00,
2013-09-17 13:50:00,77.9,64.3,30.17,ENE,61,2.0,6.0,63,0.00,,,0.00,VWS V14.00,2013-09-17 17:50:00,
2013-09-17 13:55:00,78.0,64.4,30.17,NE,55,3.0,5.0,63,0.00,,,0.00,VWS V14.00,2013-09-17 17:55:00,
2013-09-17 14:00:00,77.6,63.6,30.17,NE,43,2.0,9.0,62,0.00,,,0.00,VWS V14.00,2013-09-17 18:00:00,
2013-09-17 14:05:00,77.6,64.5,30.17,ENE,65,1.0,4.0,64,0.00,,,0.00,VWS V14.00,2013-09-17 18:05:00,
2013-09-17 14:10:00,78.0,65.3,30.17,NNE,33,4.0,7.0,65,0.00,,,0.00,VWS V14.00,2013-09-17 18:10:00,
2013-09-17 14:15:00,78.1,65.4,30.17,ENE,72,2.0,7.0,65,0.00,,,0.00,VWS V14.00,2013-09-17 18:15:00,
2013-09-17 14:20:00,77.8,64.7,30.17,NE,44,3.0,7.0,64,0.00,,,0.00,VWS V14.00,2013-09-17 18:20:00,
2013-09-17 14:25:00,78.4,66.1,30.17,West,261,0.0,4.0,66,0.00,,,0.00,VWS V14.00,2013-09-17 18:25:00,
2013-09-17 14:30:00,79.0,64.9,30.17,East,79,2.0,4.0,62,0.00,,,0.00,VWS V14.00,2013-09-17 18:30:00,
2013-09-17 14:35:00,78.9,65.2,30.17,NE,34,2.0,4.0,63,0.00,,,0.00,VWS V14.00,2013-09-17 18:35:00,
2013-09-17 14:40:00,78.4,64.8,30.17,NE,52,0.0,4.0,63,0.00,,,0.00,VWS V14.00,2013-09-17 18:40:00,
2013-09-17 14:46:00,78.0,65.7,30.17,NE,48,0.0,3.0,66,0.00,,,0.00,VWS V14.00,2013-09-17 18:46:00,
2013-09-17 14:51:00,78.1,64.5,30.16,NE,46,4.0,5.0,63,0.00,,,0.00,VWS V14.00,2013-09-17 18:51:00,
2013-09-17 14:56:00,77.9,63.4,30.16,NE,36,1.0,5.0,61,0.00,,,0.00,VWS V14.00,2013-09-17 18:56:00,
2013-09-17 15:01:00,77.9,63.8,30.16,ENE,64,1.0,5.0,62,0.00,,,0.00,VWS V14.00,2013-09-17 19:01:00,
2013-09-17 15:06:00,78.5,65.8,30.16,NE,34,2.0,3.0,65,0.00,,,0.00,VWS V14.00,2013-09-17 19:06:00,
2013-09-17 15:11:00,78.9,64.8,30.15,NE,56,2.0,2.0,62,0.00,,,0.00,VWS V14.00,2013-09-17 19:11:00,
2013-09-17 15:16:00,79.2,64.1,30.15,NNE,28,3.0,5.0,60,0.00,,,0.00,VWS V14.00,2013-09-17 19:16:00,
2013-09-17 15:21:00,79.3,64.7,30.15,ESE,114,1.0,2.0,61,0.00,,,0.00,VWS V14.00,2013-09-17 19:21:00,
2013-09-17 15:26:00,79.3,65.2,30.15,ENE,63,4.0,10.0,62,0.00,,,0.00,VWS V14.00,2013-09-17 19:26:00,
2013-09-17 15:32:00,79.4,64.3,30.15,East,88,1.0,2.0,60,0.00,,,0.00,VWS V14.00,2013-09-17 19:32:00,
2013-09-17 15:37:00,79.7,64.1,30.15,ENE,59,4.0,8.0,59,0.00,,,0.00,VWS V14.00,2013-09-17 19:37:00,
2013-09-17 15:42:00,79.5,64.4,30.15,East,88,2.0,3.0,60,0.00,,,0.00,VWS V14.00,2013-09-17 19:42:00,
2013-09-17 15:47:00,79.3,65.2,30.15,SE,124,1.0,6.0,62,0.00,,,0.00,VWS V14.00,2013-09-17 19:47:00,
2013-09-17 15:52:00,79.0,65.8,30.15,NE,50,3.0,3.0,64,0.00,,,0.00,VWS V14.00,2013-09-17 19:52:00,
2013-09-17 15:57:00,78.9,66.2,30.14,ENE,60,3.0,10.0,65,0.00,,,0.00,VWS V14.00,2013-09-17 19:57:00,
2013-09-17 16:02:00,78.4,64.8,30.15,NE,49,3.0,5.0,63,0.00,,,0.00,VWS V14.00,2013-09-17 20:02:00,
2013-09-17 16:07:00,77.8,66.0,30.15,ENE,60,2.0,5.0,67,0.00,,,0.00,VWS V14.00,2013-09-17 20:07:00,
2013-09-17 16:12:00,77.6,65.3,30.15,NE,41,0.0,2.0,66,0.00,,,0.00,VWS V14.00,2013-09-17 20:12:00,
2013-09-17 16:17:00,78.0,65.7,30.14,ENE,61,2.0,4.0,66,0.00,,,0.00,VWS V14.00,2013-09-17 20:17:00,
2013-09-17 16:22:00,78.5,65.3,30.14,ENE,64,1.0,3.0,64,0.00,,,0.00,VWS V14.00,2013-09-17 20:22:00,
2013-09-17 16:28:00,78.1,65.4,30.15,ENE,59,2.0,5.0,65,0.00,,,0.00,VWS V14.00,2013-09-17 20:28:00,
2013-09-17 16:33:00,77.7,65.9,30.14,ENE,68,2.0,4.0,67,0.00,,,0.00,VWS V14.00,2013-09-17 20:33:00,
2013-09-17 16:38:00,77.6,65.3,30.14,NE,40,3.0,7.0,66,0.00,,,0.00,VWS V14.00,2013-09-17 20:38:00,
2013-09-17 16:43:00,77.7,66.3,30.14,NNE,26,3.0,5.0,68,0.00,,,0.00,VWS V14.00,2013-09-17 20:43:00,
2013-09-17 16:48:00,77.7,66.3,30.14,ENE,60,1.0,6.0,68,0.00,,,0.00,VWS V14.00,2013-09-17 20:48:00,
2013-09-17 16:53:00,77.8,66.8,30.14,ENE,63,3.0,7.0,69,0.00,,,0.00,VWS V14.00,2013-09-17 20:53:00,
2013-09-17 16:58:00,77.8,65.5,30.14,NNE,32,5.0,10.0,66,0.00,,,0.00,VWS V14.00,2013-09-17 20:58:00,
2013-09-17 17:03:00,77.8,66.0,30.14,NE,55,4.0,5.0,67,0.00,,,0.00,VWS V14.00,2013-09-17 21:03:00,
2013-09-17 17:08:00,77.7,65.4,30.14,ENE,57,3.0,5.0,66,0.00,,,0.00,VWS V14.00,2013-09-17 21:08:00,
2013-09-17 17:13:00,77.3,65.5,30.14,ENE,64,3.0,5.0,67,0.00,,,0.00,VWS V14.00,2013-09-17 21:13:00,
2013-09-17 17:18:00,76.8,65.9,30.14,ENE,62,1.0,5.0,69,0.00,,,0.00,VWS V14.00,2013-09-17 21:18:00,
2013-09-17 17:24:00,76.6,66.5,30.14,NNE,30,2.0,4.0,71,0.00,,,0.00,VWS V14.00,2013-09-17 21:24:00,
2013-09-17 17:29:00,76.7,66.2,30.14,NE,54,3.0,6.0,70,0.00,,,0.00,VWS V14.00,2013-09-17 21:29:00,
2013-09-17 17:34:00,76.9,66.4,30.14,ENE,61,1.0,2.0,70,0.00,,,0.00,VWS V14.00,2013-09-17 21:34:00,
2013-09-17 17:39:00,77.1,67.0,30.14,NE,50,1.0,4.0,71,0.00,,,0.00,VWS V14.00,2013-09-17 21:39:00,
2013-09-17 17:44:00,77.2,66.2,30.14,NE,49,0.0,4.0,69,0.00,,,0.00,VWS V14.00,2013-09-17 21:44:00,
2013-09-17 17:49:00,77.1,66.2,30.14,ENE,64,2.0,4.0,69,0.00,,,0.00,VWS V14.00,2013-09-17 21:49:00,
2013-09-17 17:54:00,76.9,66.4,30.14,NE,34,2.0,3.0,70,0.00,,,0.00,VWS V14.00,2013-09-17 21:54:00,
2013-09-17 17:59:00,76.5,66.4,30.14,ENE,61,0.0,6.0,71,0.00,,,0.00,VWS V14.00,2013-09-17 21:59:00,
2013-09-17 18:04:00,76.1,66.4,30.14,NE,53,0.0,2.0,72,0.00,,,0.00,VWS V14.00,2013-09-17 22:04:00,
2013-09-17 18:10:00,75.9,66.2,30.14,NE,40,2.0,3.0,72,0.00,,,0.00,VWS V14.00,2013-09-17 22:10:00,
2013-09-17 18:15:00,75.9,66.6,30.14,NE,36,2.0,5.0,73,0.00,,,0.00,VWS V14.00,2013-09-17 22:15:00,
2013-09-17 18:20:00,76.0,67.1,30.14,NE,46,1.0,5.0,74,0.00,,,0.00,VWS V14.00,2013-09-17 22:20:00,
2013-09-17 18:25:00,75.9,67.0,30.14,ENE,60,0.0,3.0,74,0.00,,,0.00,VWS V14.00,2013-09-17 22:25:00,
2013-09-17 18:30:00,75.6,67.1,30.14,NE,43,1.0,6.0,75,0.00,,,0.00,VWS V14.00,2013-09-17 22:30:00,
2013-09-17 18:35:00,75.3,66.8,30.14,ENE,57,2.0,3.0,75,0.00,,,0.00,VWS V14.00,2013-09-17 22:35:00,
2013-09-17 18:40:00,75.1,67.0,30.14,ENE,69,0.0,4.0,76,0.00,,,0.00,VWS V14.00,2013-09-17 22:40:00,
2013-09-17 18:45:00,74.7,66.6,30.14,ENE,57,3.0,4.0,76,0.00,,,0.00,VWS V14.00,2013-09-17 22:45:00,
2013-09-17 18:50:00,74.5,66.4,30.14,NNE,22,2.0,5.0,76,0.00,,,0.00,VWS V14.00,2013-09-17 22:50:00,
2013-09-17 18:55:00,74.4,66.3,30.14,NE,45,2.0,4.0,76,0.00,,,0.00,VWS V14.00,2013-09-17 22:55:00,
2013-09-17 19:01:00,74.2,66.5,30.15,ENE,66,0.0,4.0,77,0.00,,,0.00,VWS V14.00,2013-09-17 23:01:00,
2013-09-17 19:06:00,74.0,66.3,30.15,ENE,70,1.0,3.0,77,0.00,,,0.00,VWS V14.00,2013-09-17 23:06:00,
2013-09-17 19:11:00,73.8,65.8,30.15,NE,34,3.0,4.0,76,0.00,,,0.00,VWS V14.00,2013-09-17 23:11:00,
2013-09-17 19:16:00,73.6,65.9,30.15,NE,48,1.0,3.0,77,0.00,,,0.00,VWS V14.00,2013-09-17 23:16:00,
2013-09-17 19:21:00,73.4,65.4,30.15,NE,40,3.0,3.0,76,0.00,,,0.00,VWS V14.00,2013-09-17 23:21:00,
2013-09-17 19:27:00,73.2,65.2,30.15,NE,44,3.0,4.0,76,0.00,,,0.00,VWS V14.00,2013-09-17 23:27:00,
2013-09-17 19:33:00,73.0,65.4,30.15,ENE,69,0.0,3.0,77,0.00,,,0.00,VWS V14.00,2013-09-17 23:33:00,
2013-09-17 19:38:00,72.9,65.3,30.15,ENE,59,2.0,3.0,77,0.00,,,0.00,VWS V14.00,2013-09-17 23:38:00,
2013-09-17 19:43:00,72.6,65.3,30.15,ENE,59,1.0,2.0,78,0.00,,,0.00,VWS V14.00,2013-09-17 23:43:00,
2013-09-17 19:48:00,72.5,65.3,30.15,NE,51,2.0,3.0,78,0.00,,,0.00,VWS V14.00,2013-09-17 23:48:00,
2013-09-17 19:53:00,72.3,65.1,30.15,NE,53,2.0,2.0,78,0.00,,,0.00,VWS V14.00,2013-09-17 23:53:00,
2013-09-17 19:58:00,72.2,65.3,30.15,ENE,57,2.0,4.0,79,0.00,,,0.00,VWS V14.00,2013-09-17 23:58:00,
2013-09-17 20:03:00,72.1,64.9,30.15,NE,52,1.0,2.0,78,0.00,,,0.00,VWS V14.00,2013-09-18 00:03:00,
2013-09-17 20:09:00,72.0,64.8,30.16,ENE,63,2.0,4.0,78,0.00,,,0.00,VWS V14.00,2013-09-18 00:09:00,
2013-09-17 20:15:00,71.8,64.6,30.16,ENE,63,1.0,3.0,78,0.00,,,0.00,VWS V14.00,2013-09-18 00:15:00,
2013-09-17 20:20:00,71.6,64.4,30.16,NE,46,2.0,3.0,78,0.00,,,0.00,VWS V14.00,2013-09-18 00:20:00,
2013-09-17 20:25:00,71.5,64.7,30.16,NE,56,1.0,3.0,79,0.00,,,0.00,VWS V14.00,2013-09-18 00:25:00,
2013-09-17 20:30:00,71.3,64.5,30.16,ENE,60,1.0,3.0,79,0.00,,,0.00,VWS V14.00,2013-09-18 00:30:00,
2013-09-17 20:35:00,71.1,63.9,30.16,ENE,68,2.0,3.0,78,0.00,,,0.00,VWS V14.00,2013-09-18 00:35:00,
2013-09-17 20:41:00,71.0,63.8,30.16,ENE,68,2.0,3.0,78,0.00,,,0.00,VWS V14.00,2013-09-18 00:41:00,
2013-09-17 20:46:00,70.8,63.2,30.16,ENE,57,1.0,4.0,77,0.00,,,0.00,VWS V14.00,2013-09-18 00:46:00,
2013-09-17 20:52:00,70.6,63.0,30.16,ENE,61,3.0,3.0,77,0.00,,,0.00,VWS V14.00,2013-09-18 00:52:00,
2013-09-17 20:57:00,70.4,62.5,30.17,ENE,61,1.0,3.0,76,0.00,,,0.00,VWS V14.00,2013-09-18 00:57:00,
2013-09-17 21:02:00,70.3,62.4,30.17,ENE,61,0.0,2.0,76,0.00,,,0.00,VWS V14.00,2013-09-18 01:02:00,
2013-09-17 21:07:00,70.3,62.4,30.17,ENE,60,1.0,2.0,76,0.00,,,0.00,VWS V14.00,2013-09-18 01:07:00,
2013-09-17 21:12:00,70.0,62.5,30.17,ENE,60,3.0,3.0,77,0.00,,,0.00,VWS V14.00,2013-09-18 01:12:00,
2013-09-17 21:17:00,69.9,62.4,30.17,NE,53,3.0,4.0,77,0.00,,,0.00,VWS V14.00,2013-09-18 01:17:00,
2013-09-17 21:22:00,69.7,62.2,30.17,NE,51,2.0,3.0,77,0.00,,,0.00,VWS V14.00,2013-09-18 01:22:00,
2013-09-17 21:27:00,69.7,62.5,30.18,ENE,60,1.0,3.0,78,0.00,,,0.00,VWS V14.00,2013-09-18 01:27:00,
2013-09-17 21:32:00,69.5,62.3,30.18,ENE,65,1.0,3.0,78,0.00,,,0.00,VWS V14.00,2013-09-18 01:32:00,
2013-09-17 21:37:00,69.4,62.2,30.18,NE,55,1.0,4.0,78,0.00,,,0.00,VWS V14.00,2013-09-18 01:37:00,
2013-09-17 21:43:00,69.3,62.2,30.18,NE,55,0.0,3.0,78,0.00,,,0.00,VWS V14.00,2013-09-18 01:43:00,
2013-09-17 21:48:00,69.2,62.1,30.18,ENE,59,0.0,3.0,78,0.00,,,0.00,VWS V14.00,2013-09-18 01:48:00,
2013-09-17 21:53:00,69.1,62.0,30.19,ENE,63,1.0,6.0,78,0.00,,,0.00,VWS V14.00,2013-09-18 01:53:00,
2013-09-17 21:58:00,69.0,61.9,30.19,ENE,69,2.0,6.0,78,0.00,,,0.00,VWS V14.00,2013-09-18 01:58:00,
2013-09-17 22:03:00,68.9,61.8,30.19,NE,56,2.0,4.0,78,0.00,,,0.00,VWS V14.00,2013-09-18 02:03:00,
2013-09-17 22:08:00,68.7,61.6,30.19,ENE,67,1.0,4.0,78,0.00,,,0.00,VWS V14.00,2013-09-18 02:08:00,
2013-09-17 22:13:00,68.6,61.5,30.19,ENE,64,1.0,4.0,78,0.00,,,0.00,VWS V14.00,2013-09-18 02:13:00,
2013-09-17 22:18:00,68.4,61.3,30.19,NE,52,1.0,5.0,78,0.00,,,0.00,VWS V14.00,2013-09-18 02:18:00,
2013-09-17 22:23:00,68.3,61.2,30.19,ENE,64,2.0,4.0,78,0.00,,,0.00,VWS V14.00,2013-09-18 02:23:00,
2013-09-17 22:28:00,68.1,61.0,30.19,NE,44,2.0,4.0,78,0.00,,,0.00,VWS V14.00,2013-09-18 02:28:00,
2013-09-17 22:33:00,67.9,60.8,30.19,ENE,63,1.0,4.0,78,0.00,,,0.00,VWS V14.00,2013-09-18 02:33:00,
2013-09-17 22:39:00,67.8,60.7,30.19,ENE,57,1.0,4.0,78,0.00,,,0.00,VWS V14.00,2013-09-18 02:39:00,
2013-09-17 22:44:00,67.7,61.0,30.19,NE,34,3.0,3.0,79,0.00,,,0.00,VWS V14.00,2013-09-18 02:44:00,
2013-09-17 22:49:00,67.5,60.8,30.19,NE,51,2.0,4.0,79,0.00,,,0.00,VWS V14.00,2013-09-18 02:49:00,
2013-09-17 22:54:00,67.3,60.6,30.19,ENE,59,1.0,3.0,79,0.00,,,0.00,VWS V14.00,2013-09-18 02:54:00,
2013-09-17 22:59:00,67.1,60.4,30.19,NE,55,1.0,3.0,79,0.00,,,0.00,VWS V14.00,2013-09-18 02:59:00,
2013-09-17 23:04:00,66.9,60.2,30.19,ENE,59,2.0,2.0,79,0.00,,,0.00,VWS V14.00,2013-09-18 03:04:00,
2013-09-17 23:09:00,66.7,60.0,30.19,NE,55,3.0,4.0,79,0.00,,,0.00,VWS V14.00,2013-09-18 03:09:00,
2013-09-17 23:14:00,66.6,59.9,30.19,ENE,62,2.0,3.0,79,0.00,,,0.00,VWS V14.00,2013-09-18 03:14:00,
2013-09-17 23:19:00,66.4,59.7,30.19,ENE,61,1.0,4.0,79,0.00,,,0.00,VWS V14.00,2013-09-18 03:19:00,
2013-09-17 23:24:00,66.2,59.5,30.19,ENE,60,2.0,3.0,79,0.00,,,0.00,VWS V14.00,2013-09-18 03:24:00,
2013-09-17 23:30:00,66.0,59.3,30.20,ENE,61,2.0,3.0,79,0.00,,,0.00,VWS V14.00,2013-09-18 03:30:00,
2013-09-17 23:35:00,65.9,59.6,30.20,NE,49,1.0,2.0,80,0.00,,,0.00,VWS V14.00,2013-09-18 03:35:00,